[[{"header":{"parameterUnit":"m.s-1","parameterCategory":1,"la1":30.2991,"la2":30.254,"lo1":-89.0895,"lo2":-89.0444,"dy":0.0017,"dx":0.0017,"nx":28,"ny":28,"refTime":"2025-12-22T03:00:00:Z","depth":0,"parameterNumber":2,"parameterNumberName":"U-component_of_WINDS"},"data":[0,0,0,0,0,0,0,0,0,0,0,0,0,0,0,0,0,0,0,0,0,0,0,0,0,0,0,0,0,0,0,0,0,0,0,0,0,0,0,0,0,0,0,0,0,0,0,0,0,0,0,0,0,0,0,0,0,0,-1.6214,-1.6214,0,-1.6241,-1.6241,-1.6242,-1.6207,-1.6206,-1.6204,-1.6203,-1.6229,-1.6231,-1.6233,0,0,0,0,0,0,0,0,0,0,0,0,0,-1.6129,-1.6131,-1.6214,-1.6214,-1.6214,-1.6241,-1.6241,-1.6242,-1.6207,-1.6205,-1.6204,-1.6202,-1.6229,-1.6231,-1.6233,0,0,0,0,0,0,0,0,0,0,0,0,0,-1.6162,-1.6132,-1.6213,-1.62,-1.6199,-1.6241,-1.6241,-1.6242,-1.6207,-1.6205,-1.6204,-1.6202,-1.6228,-1.6231,-1.6234,-1.6289,0,0,-1.6242,-1.6244,0,0,0,0,0,0,0,0,-1.616,-1.6165,-1.6202,-1.6201,-1.62,-1.6219,-1.6221,-1.6258,-1.6208,-1.6204,-1.6203,-1.6201,-1.6227,-1.623,-1.6239,-1.629,-1.6291,-1.6243,-1.6244,-1.6245,-1.6246,0,0,0,0,0,0,0,-1.6158,-1.6164,-1.6224,-1.6202,-1.6201,-1.6192,-1.6195,-1.6228,-1.6226,-1.6204,-1.6202,-1.6206,-1.6226,-1.6237,-1.624,-1.6292,-1.6242,-1.6245,-1.6247,-1.6248,-1.6389,-1.6391,0,0,0,0,0,0,-1.6158,-1.6162,-1.6223,-1.6225,-1.6175,-1.6195,-1.6198,-1.6215,-1.6226,-1.6225,-1.6207,-1.6204,-1.6233,-1.6236,-1.624,-1.6305,-1.6245,-1.6248,-1.625,-1.6387,-1.6389,-1.6391,0,0,0,0,0,0,-1.6156,-1.6164,-1.6222,-1.6193,-1.62,-1.6199,-1.6217,-1.6216,-1.6226,-1.6228,-1.6227,-1.6218,-1.6231,-1.6236,-1.6277,-1.6305,-1.6249,-1.6252,-1.6384,-1.6387,-1.639,-1.6435,0,0,0,0,0,0,-1.6154,-1.6163,-1.6185,-1.6194,-1.6202,-1.6259,-1.6219,-1.6218,-1.6231,-1.6227,-1.6238,-1.6238,-1.623,-1.6273,-1.628,-1.6308,-1.6254,-1.6382,-1.6386,-1.6389,-1.6431,-1.644,-1.6447,0,0,0,0,0,-1.6151,-1.6196,-1.6186,-1.6193,-1.6228,-1.6261,-1.6265,-1.6256,-1.6234,-1.6255,-1.6256,-1.6237,-1.6302,-1.6278,-1.6285,-1.6315,-1.638,-1.6384,-1.6389,-1.6428,-1.6438,-1.6447,0,0,0,0,0,0,-1.6189,-1.6197,-1.6186,-1.6235,-1.6248,-1.6255,-1.6281,-1.6267,-1.6286,-1.6281,-1.6269,-1.6272,-1.6315,-1.6319,-1.6292,-1.6368,-1.6337,-1.6343,-1.6364,-1.6374,-1.6381,-1.6379,-1.6256,0,0,0,0,0,-1.6204,-1.623,-1.6235,-1.6278,-1.6285,-1.6283,-1.6296,-1.6288,-1.63,-1.6305,-1.6309,-1.6321,-1.6344,-1.6359,-1.638,-1.6432,-1.6433,-1.6456,-1.6464,-1.647,-1.6475,-1.6502,-1.6512,-1.6406,-1.6406,-1.6406,0,0,-1.6234,-1.6241,-1.6258,-1.6286,-1.6295,-1.6322,-1.6287,-1.6317,-1.6336,-1.631,-1.6348,-1.6352,-1.6364,-1.641,-1.6431,-1.6415,-1.6505,-1.6476,-1.6481,-1.6483,-1.6508,-1.6518,-1.6527,-1.641,-1.6409,-1.6408,0,0,-1.6301,-1.631,-1.6346,-1.6356,-1.637,-1.6368,-1.6377,-1.6386,-1.6387,-1.6426,-1.6406,-1.6429,-1.6469,-1.6478,-1.6488,-1.656,-1.6543,-1.6567,-1.6607,-1.6633,-1.6641,-1.6649,-1.6673,-1.6682,-1.6573,-1.6573,-1.6573,0,-1.6336,-1.6376,-1.6367,-1.6398,-1.6411,-1.6389,-1.6425,-1.6435,-1.6454,-1.6463,-1.6446,-1.6495,-1.6502,-1.6549,-1.6567,-1.6576,-1.6585,-1.6565,-1.6641,-1.6648,-1.6655,-1.6678,-1.6687,-1.6576,-1.6575,-1.6575,-1.6575,0,-1.6418,-1.6446,-1.6474,-1.6494,-1.651,-1.6543,-1.6539,-1.6556,-1.6547,-1.6546,-1.6585,-1.6593,-1.6615,-1.6626,-1.6617,-1.6672,-1.6662,-1.6643,-1.6611,-1.6668,-1.6689,-1.6698,-1.658,-1.6579,-1.6578,-1.6577,0,0,-1.6509,-1.6524,-1.6534,-1.6543,-1.6557,-1.6578,-1.6611,-1.6633,-1.6647,-1.6662,-1.6688,-1.6722,-1.6705,-1.6716,-1.6708,-1.6732,-1.6786,-1.671,-1.671,-1.6722,-1.6846,-1.6859,-1.6869,-1.6776,-1.6777,-1.6779,-1.6844,0,-1.6576,-1.6632,-1.6625,-1.6679,-1.6704,-1.6684,-1.6712,-1.6723,-1.6724,-1.6745,-1.6745,-1.6769,-1.6745,-1.6752,-1.6774,-1.6775,-1.6811,-1.677,-1.6799,-1.68,-1.6795,-1.6881,-1.6895,-1.6956,-1.6853,-1.6854,-1.6855,0,-1.6661,-1.6679,-1.6735,-1.6745,-1.6755,-1.6781,-1.68,-1.6821,-1.6833,-1.6832,-1.6845,-1.6833,-1.6864,-1.6833,-1.6876,-1.6849,-1.686,-1.6862,-1.6864,-1.6865,-1.683,-1.6882,-1.6975,-1.6984,-1.6868,-1.6867,-1.6866,0,-1.672,-1.6759,-1.6797,-1.6805,-1.6818,-1.6836,-1.6842,-1.6852,-1.6866,-1.6883,-1.6891,-1.6911,-1.6922,-1.6938,-1.6931,-1.6909,-1.6975,-1.6943,-1.6974,-1.6974,-1.6987,-1.6986,-1.7082,-1.6998,-1.6998,-1.6997,-1.6997,0,-1.6794,-1.6829,-1.6824,-1.6848,-1.6886,-1.6877,-1.6916,-1.6919,-1.6928,-1.6952,-1.6936,-1.6958,-1.6949,-1.697,-1.6965,-1.7001,-1.7006,-1.7005,-1.7003,-1.7006,-1.7006,-1.7012,-1.7007,-1.7,-1.6999,-1.6999,-1.6998,0,-1.6866,-1.6864,-1.6905,-1.6914,-1.6917,-1.6944,-1.6951,-1.6973,-1.6973,-1.7003,-1.7009,-1.7008,-1.7032,-1.7028,-1.7055,-1.7052,-1.7096,-1.7089,-1.7092,-1.709,-1.712,-1.7116,-1.7221,-1.7234,-1.7143,-1.7144,-1.7145,0,-1.6913,-1.694,-1.6951,-1.6966,-1.6973,-1.6997,-1.7011,-1.7004,-1.7019,-1.7034,-1.7054,-1.7077,-1.7095,-1.7134,-1.7136,-1.7156,-1.7149,-1.7184,-1.7152,-1.7153,-1.7148,-1.7145,-1.7147,-1.719,-1.7191,-1.7192,-1.7193,0,-1.6996,-1.6993,-1.7014,-1.7035,-1.7052,-1.7068,-1.7082,-1.7094,-1.7088,-1.7106,-1.7131,-1.7144,-1.7172,-1.7194,-1.7213,-1.7219,-1.7204,-1.7203,-1.7211,-1.7213,-1.7213,-1.7212,-1.7108,-1.7201,-1.72,-1.7199,-1.7199,-1.7199,-1.7055,-1.7078,-1.7089,-1.7113,-1.7123,-1.7136,-1.7157,-1.7159,-1.718,-1.7202,-1.7197,-1.7225,-1.7235,-1.7259,-1.7267,-1.7288,-1.7275,-1.7286,-1.7289,-1.7292,-1.7295,-1.7211,-1.7292,-1.7291,-1.7291,-1.7291,-1.7291,0,-1.7136,-1.7142,-1.7164,-1.7185,-1.7203,-1.7189,-1.7204,-1.722,-1.7245,-1.7257,-1.7275,-1.7303,-1.7325,-1.7328,-1.7349,-1.7365,-1.7359,-1.737,-1.7368,-1.7369,-1.7306,-1.7297,-1.7375,-1.7375,-1.7375,-1.7375,-1.7375,-1.7375,-1.718,-1.7216,-1.7216,-1.7257,-1.7263,-1.729,-1.73,-1.7312,-1.7321,-1.7353,-1.7372,-1.7374,-1.7382,-1.7403,-1.7422,-1.7423,-1.743,-1.7444,-1.7442,-1.7382,-1.7374,-1.7366,-1.7357,-1.7446,-1.7446,-1.7503,-1.7503,-1.7504]},{"header":{"parameterUnit":"m.s-1","parameterCategory":1,"la1":30.2991,"la2":30.254,"lo1":-89.0895,"lo2":-89.0444,"dy":0.0017,"dx":0.0017,"nx":28,"ny":28,"refTime":"2025-12-22T03:00:00:Z","depth":0,"parameterNumber":3,"parameterNumberName":"V-component_of_WINDS"},"data":[0,0,0,0,0,0,0,0,0,0,0,0,0,0,0,0,0,0,0,0,0,0,0,0,0,0,0,0,0,0,0,0,0,0,0,0,0,0,0,0,0,0,0,0,0,0,0,0,0,0,0,0,0,0,0,0,0,0,1.5539,1.554,0,1.5573,1.5574,1.5574,1.5562,1.5561,1.556,1.556,1.5595,1.5596,1.5598,0,0,0,0,0,0,0,0,0,0,0,0,0,1.5465,1.5466,1.5539,1.554,1.554,1.5573,1.5574,1.5574,1.5562,1.5561,1.556,1.5559,1.5594,1.5596,1.5598,0,0,0,0,0,0,0,0,0,0,0,0,0,1.5498,1.5467,1.5539,1.5538,1.5538,1.5573,1.5574,1.5574,1.5562,1.5561,1.556,1.5559,1.5593,1.5596,1.5598,1.5636,0,0,1.5606,1.5607,0,0,0,0,0,0,0,0,1.5496,1.5501,1.5538,1.5538,1.5539,1.5562,1.556,1.5595,1.5562,1.5553,1.556,1.5558,1.5585,1.5588,1.5597,1.5638,1.5639,1.5606,1.5607,1.5608,1.5609,0,0,0,0,0,0,0,1.5494,1.5499,1.5553,1.5538,1.5539,1.5536,1.554,1.5567,1.5575,1.5554,1.5553,1.5557,1.5585,1.5594,1.5597,1.564,1.5606,1.5608,1.561,1.5611,1.5716,1.5717,0,0,0,0,0,0,1.5491,1.5497,1.5552,1.5554,1.5514,1.5538,1.5542,1.5556,1.5575,1.5576,1.5558,1.5556,1.5591,1.5595,1.5599,1.5646,1.5608,1.5611,1.5612,1.5714,1.5716,1.5717,0,0,0,0,0,0,1.549,1.5496,1.555,1.5525,1.5532,1.5541,1.5556,1.5557,1.5567,1.5578,1.5579,1.5567,1.559,1.5595,1.5627,1.5647,1.5612,1.5614,1.5713,1.5715,1.5717,1.574,0,0,0,0,0,0,1.5488,1.5496,1.551,1.5526,1.5533,1.5579,1.5557,1.5558,1.5571,1.5569,1.5586,1.5588,1.5589,1.5624,1.563,1.565,1.5616,1.5711,1.5714,1.5716,1.5737,1.5742,1.5747,0,0,0,0,0,1.5485,1.5515,1.5511,1.5518,1.5552,1.558,1.5584,1.5585,1.5572,1.5587,1.5595,1.5587,1.5643,1.5627,1.5634,1.5655,1.571,1.5713,1.5716,1.5735,1.5741,1.5747,0,0,0,0,0,0,1.5502,1.5517,1.5513,1.5549,1.5563,1.5577,1.5596,1.5591,1.561,1.5607,1.5608,1.5612,1.5645,1.5653,1.5635,1.5693,1.5675,1.5679,1.5687,1.5693,1.5698,1.5696,1.5618,0,0,0,0,0,1.5509,1.5531,1.5543,1.5574,1.5581,1.5587,1.56,1.5599,1.5614,1.562,1.563,1.5645,1.5666,1.5679,1.5699,1.5738,1.5742,1.5756,1.576,1.5764,1.5768,1.5791,1.5797,1.5727,1.5727,1.5727,0,0,1.5526,1.5537,1.555,1.5577,1.5588,1.5611,1.5593,1.5617,1.5634,1.5624,1.5655,1.5663,1.5679,1.5715,1.5732,1.5723,1.5788,1.5768,1.5771,1.5773,1.5794,1.5801,1.5807,1.5729,1.5729,1.5728,0,0,1.5568,1.5578,1.5605,1.5617,1.5634,1.5638,1.5644,1.566,1.5664,1.5696,1.5689,1.5709,1.5745,1.5757,1.5769,1.5816,1.581,1.5822,1.5847,1.5868,1.5874,1.5879,1.5897,1.5904,1.5826,1.5826,1.5826,0,1.5587,1.562,1.562,1.5645,1.5658,1.5649,1.5678,1.5689,1.5711,1.572,1.571,1.5755,1.5766,1.5805,1.5817,1.5825,1.5834,1.5821,1.5873,1.5878,1.5883,1.59,1.5907,1.5827,1.5827,1.5827,1.5827,0,1.5643,1.5667,1.5687,1.5709,1.5723,1.575,1.5754,1.5769,1.5767,1.5772,1.5805,1.5817,1.584,1.5849,1.5847,1.5889,1.5883,1.5873,1.5854,1.5891,1.5907,1.5914,1.5829,1.5829,1.5828,1.5828,0,0,1.5698,1.572,1.5727,1.5738,1.5756,1.5774,1.58,1.5823,1.5836,1.5851,1.5874,1.5905,1.5896,1.5909,1.5908,1.5927,1.5965,1.5915,1.5915,1.5925,1.6013,1.6022,1.603,1.5961,1.5962,1.5963,1.6013,0,1.5743,1.579,1.579,1.5833,1.5855,1.5847,1.587,1.5884,1.589,1.591,1.5915,1.5938,1.5923,1.5931,1.5949,1.5957,1.5983,1.5953,1.5984,1.5985,1.5982,1.6039,1.6048,1.6094,1.6019,1.602,1.6021,0,1.5802,1.582,1.5865,1.5881,1.589,1.5911,1.5932,1.5951,1.5966,1.5969,1.5983,1.598,1.6007,1.5987,1.6025,1.6005,1.6017,1.6022,1.6024,1.6029,1.6006,1.6046,1.6109,1.6116,1.6031,1.603,1.6029,0,1.584,1.5875,1.5907,1.5916,1.5935,1.595,1.5958,1.5972,1.5986,1.6004,1.6013,1.6034,1.6046,1.6062,1.6065,1.605,1.6104,1.6084,1.6108,1.6109,1.6122,1.6121,1.6189,1.6126,1.6126,1.6126,1.6126,0,1.5892,1.592,1.5925,1.5945,1.5977,1.5977,1.6008,1.6015,1.6028,1.605,1.6043,1.6064,1.6065,1.6086,1.6088,1.6121,1.6126,1.613,1.613,1.6131,1.6131,1.6141,1.6139,1.6128,1.6128,1.6127,1.6127,0,1.5941,1.5944,1.5979,1.5993,1.5998,1.6021,1.6033,1.6053,1.6057,1.6084,1.6091,1.6098,1.6123,1.6127,1.6155,1.6157,1.6196,1.6192,1.6191,1.6192,1.6217,1.6215,1.6295,1.6306,1.6234,1.6235,1.6235,0,1.5974,1.5996,1.6013,1.6027,1.6036,1.6058,1.6072,1.6073,1.6088,1.6107,1.6125,1.6148,1.6168,1.6207,1.6215,1.6237,1.6236,1.6262,1.6239,1.624,1.6238,1.6238,1.6241,1.6267,1.6268,1.6268,1.6269,0,1.6035,1.6035,1.6056,1.6077,1.6094,1.611,1.6126,1.6138,1.6141,1.6158,1.6183,1.6198,1.6227,1.6251,1.6273,1.6282,1.6277,1.6276,1.6283,1.6286,1.6285,1.6288,1.6206,1.6274,1.6274,1.6273,1.6273,1.6273,1.6078,1.6098,1.6113,1.6136,1.6148,1.6163,1.6182,1.6189,1.6209,1.6234,1.6232,1.626,1.6276,1.6305,1.6315,1.6337,1.6329,1.6339,1.6342,1.6345,1.6348,1.6279,1.6341,1.634,1.634,1.634,1.634,0,1.614,1.6149,1.617,1.6193,1.6211,1.6203,1.622,1.6236,1.6261,1.6275,1.6294,1.6324,1.6347,1.6357,1.638,1.6396,1.6394,1.6402,1.6402,1.6405,1.6353,1.6346,1.6403,1.6403,1.6403,1.6403,1.6403,1.6403,1.6175,1.6208,1.621,1.6249,1.6258,1.6286,1.6296,1.631,1.6322,1.6355,1.6375,1.638,1.6393,1.6417,1.6439,1.6441,1.6451,1.6461,1.6462,1.6414,1.6408,1.6402,1.6395,1.6462,1.6462,1.6512,1.6512,1.6513]}]]